YO7MGN Weather Reports


Display with metric or nautical units.
time (UTC)temp
F
wind
direction
speed
MPH
gust
MPH
rain 1hr
in
rain 24hr
in
rain mn
in
humidity
%
barometer
mb
20260507103012 74 148 0.0 0.0 0.00 0.00 0.00 47 1015.6
20260507101511 74 28 0.0 0.0 0.00 0.00 0.00 47 1015.7
20260507100009 73 167 0.0 0.0 0.00 0.00 0.00 47 1015.7
20260507094506 72 155 0.0 0.0 0.00 0.00 0.00 50 1015.7
20260507093005 72 146 0.0 0.0 0.00 0.00 0.00 50 1015.6
20260507091505 72 145 0.0 0.0 0.00 0.00 0.00 50 1015.7
20260507090006 72 177 0.0 0.0 0.00 0.00 0.00 50 1015.6
20260507084502 72 126 0.0 0.0 0.00 0.00 0.00 50 1015.6
20260507083002 72 134 0.0 0.0 0.00 0.00 0.00 50 1015.5
20260507081558 71 5 0.0 0.0 0.00 0.00 0.00 52 1015.5
20260507080056 70 5 0.0 0.0 0.00 0.00 0.00 53 1015.5
20260507074554 70 5 0.0 0.0 0.00 0.00 0.00 54 1015.4
20260507073103 70 360 0.0 0.0 0.00 0.00 0.00 52 1015.5
20260507071550 69 11 0.0 0.0 0.00 0.00 0.00 54 1015.5
20260507070055 67 5 0.0 0.0 0.00 0.00 0.00 55 1015.5
20260507064550 66 360 0.0 0.0 0.00 0.00 0.00 56 1015.5
20260507063039 64 40 0.0 1.0 0.00 0.00 0.00 59 1015.5
20260507061538 63 342 0.0 0.0 0.00 0.00 0.00 58 1015.6
20260507060034 62 17 0.0 3.0 0.00 0.00 0.00 59 1015.5
20260507054533 61 360 0.0 3.0 0.00 0.00 0.00 63 1015.4
20260507053031 59 355 0.0 5.0 0.00 0.00 0.00 64 1015.2
20260507051530 59 342 0.0 1.0 0.00 0.00 0.00 65 1015.1
20260507050031 59 342 0.0 1.0 0.00 0.00 0.00 65 1015.1
20260507044529 59 158 0.0 0.0 0.00 0.00 0.00 67 1015.1
20260507043026 58 159 0.0 0.0 0.00 0.00 0.00 68 1014.7
20260507041523 57 159 0.0 0.0 0.00 0.00 0.00 69 1014.5
20260507040020 57 159 0.0 1.0 0.00 0.00 0.00 69 1014.4
20260507034520 57 33 0.0 0.0 0.00 0.00 0.00 69 1014.1
20260507033019 57 25 0.0 0.0 0.00 0.00 0.00 69 1013.9
20260507031515 57 19 0.0 1.0 0.00 0.00 0.00 70 1013.8
20260507030014 57 12 0.0 2.0 0.00 0.00 0.00 70 1013.7
20260507024513 58 5 0.0 1.0 0.00 0.00 0.00 71 1014.0
20260507023011 58 11 0.0 2.0 0.00 0.00 0.00 72 1013.9
20260507021510 58 27 0.0 1.0 0.00 0.00 0.00 72 1013.9
20260507020011 58 9 0.0 0.0 0.00 0.00 0.00 72 1013.8
20260507014509 58 5 0.0 0.0 0.00 0.00 0.00 72 1013.8
20260507013006 58 25 0.0 0.0 0.00 0.00 0.00 72 1013.8
20260507011514 59 25 0.0 1.0 0.00 0.00 0.00 72 1013.6
20260507010003 59 15 0.0 0.0 0.00 0.00 0.00 72 1013.5
20260507004500 59 10 0.0 1.0 0.00 0.00 0.00 72 1013.3
20260507003111 59 10 0.0 2.0 0.00 0.00 0.00 72 1013.2
20260507001603 60 360 0.0 1.0 0.00 0.00 0.00 72 1013.0
20260507000057 60 360 0.0 2.0 0.00 0.00 0.00 72 1013.0
20260506234605 60 339 0.0 1.0 0.00 0.00 0.00 71 1013.0
20260506233056 61 47 0.0 1.0 0.00 0.00 0.00 70 1013.0
20260506231555 62 54 0.0 1.0 0.00 0.00 0.00 69 1012.8
20260506230047 62 12 0.0 1.0 0.00 0.00 0.00 67 1013.0
20260506224545 63 360 0.0 1.0 0.00 0.00 0.00 66 1013.0
20260506223042 64 360 0.0 0.0 0.00 0.00 0.00 63 1013.0
20260506221537 65 5 0.0 0.0 0.00 0.00 0.00 60 1013.0
20260506220037 66 360 0.0 0.0 0.00 0.00 0.00 58 1013.1
20260506214534 66 5 0.0 0.0 0.00 0.00 0.00 57 1013.0
20260506213037 67 360 0.0 0.0 0.00 0.00 0.00 56 1013.0
20260506211528 67 5 0.0 0.0 0.00 0.00 0.00 56 1012.9
20260506210032 68 5 0.0 0.0 0.00 0.00 0.00 55 1012.9
20260506204526 68 5 0.0 0.0 0.00 0.00 0.00 55 1013.0
20260506203034 69 360 0.0 0.0 0.00 0.00 0.00 55 1013.0
20260506201526 69 360 0.0 0.0 0.00 0.00 0.00 56 1012.9
20260506200025 69 355 0.0 0.0 0.00 0.00 0.00 57 1012.9
20260506194525 69 355 0.0 0.0 0.00 0.00 0.00 58 1012.9
20260506193024 69 355 0.0 0.0 0.00 0.00 0.00 57 1012.7
20260506191523 70 355 0.0 0.0 0.00 0.00 0.00 56 1012.7
20260506190022 71 355 0.0 0.0 0.00 0.00 0.00 55 1012.6
20260506184522 71 355 0.0 0.0 0.00 0.00 0.00 53 1012.5
20260506183022 72 355 0.0 0.0 0.00 0.00 0.00 53 1012.3
20260506181521 73 355 0.0 0.0 0.00 0.00 0.00 51 1012.2
20260506180121 74 355 0.0 0.0 0.00 0.00 0.00 50 1012.0
20260506174521 75 355 0.0 0.0 0.00 0.00 0.00 50 1011.8
20260506173022 76 355 0.0 0.0 0.00 0.00 0.00 48 1011.7
20260506171520 76 355 0.0 0.0 0.00 0.00 0.00 46 1011.6
20260506170019 77 351 0.0 0.0 0.00 0.00 0.00 45 1011.6
20260506164519 78 355 0.0 0.0 0.00 0.00 0.00 45 1011.5
20260506163026 79 351 0.0 0.0 0.00 0.00 0.00 43 1011.4
20260506161518 80 15 0.0 0.0 0.00 0.00 0.00 41 1011.4
20260506160017 81 10 0.0 0.0 0.00 0.00 0.00 40 1011.4
20260506154515 82 360 0.0 0.0 0.00 0.00 0.00 40 1011.5
20260506153014 83 5 0.0 0.0 0.00 0.00 0.00 39 1011.6
20260506151514 84 5 0.0 0.0 0.00 0.00 0.00 37 1011.6
20260506150013 84 355 0.0 0.0 0.00 0.00 0.00 31 1011.7
20260506144511 85 173 0.0 0.0 0.00 0.00 0.00 30 1011.7
20260506143021 85 177 0.0 0.0 0.00 0.00 0.00 30 1011.8
20260506141509 85 351 0.0 0.0 0.00 0.00 0.00 24 1011.9
20260506140006 85 306 0.0 0.0 0.00 0.00 0.00 26 1012.0
20260506134506 84 55 0.0 0.0 0.00 0.00 0.00 29 1012.1
20260506133006 85 178 0.0 0.0 0.00 0.00 0.00 29 1012.1
20260506131506 85 173 0.0 0.0 0.00 0.00 0.00 31 1012.3
20260506130001 85 179 0.0 0.0 0.00 0.00 0.00 35 1012.4
20260506124602 85 91 0.0 0.0 0.00 0.00 0.00 34 1012.5
20260506123055 85 182 0.0 0.0 0.00 0.00 0.00 37 1012.6
20260506121551 84 342 0.0 0.0 0.00 0.00 0.00 35 1012.8
20260506120047 84 182 0.0 0.0 0.00 0.00 0.00 37 1013.0
20260506114542 83 207 0.0 0.0 0.00 0.00 0.00 37 1013.1
20260506113050 82 151 0.0 0.0 0.00 0.00 0.00 40 1013.2
20260506111541 82 55 0.0 0.0 0.00 0.00 0.00 39 1013.3
20260506110040 81 351 0.0 0.0 0.00 0.00 0.00 42 1013.4
20260506104538 81 11 0.0 0.0 0.00 0.00 0.00 43 1013.6